P/2019 B2 ( Groeller )

Japanese version
Home page
Updated on June 8, 2019

---------------------------------------------------------------------

* Profile

Discovery Date January 26, 2019
Magnitude 18.0 mag
Discoverer H. Groeller (Catalina Sky Survey)

* Pictures

* Orbital Elements

Epoch 2019 June 6.0 TT = JDT 2458640.5
T 2019 June 8.04250 TT                                  MPCW
q   2.4164187            (2000.0)            P               Q
n   0.13034726     Peri.  358.71415     -0.99651505     -0.08147573
a   3.8524301      Node   176.46049     +0.07888182     -0.99015520
e   0.3727547      Incl.   16.82854     +0.02711844     -0.11381735
P   7.56
From 171 observations 2019 Jan. 4-June 1, mean residual 0".9.

* Magnitudes Graph

        m1 = 13.5 + 5 log d + 10.0 log r

---------------------------------------------------------------------

The orbital elements are published on M.P.E.C. 2019-L24.
The magnitudes graphs are made with Comet for Windows.

---------------------------------------------------------------------

Copyright(C) Seiichi Yoshida (comet@aerith.net). All rights reserved.